TimeMST,TemperatureF,Dew PointF,Humidity,Sea Level PressureIn,VisibilityMPH,Wind Direction,Wind SpeedMPH,Gust SpeedMPH,PrecipitationIn,Events,Conditions,WindDirDegrees,DateUTC
12:53 AM,32.0,21.0,64,29.69,10.0,West,13.8,-,N/A,,Clear,260,2013-01-28 07:53:00
1:53 AM,30.0,19.9,66,29.66,10.0,NW,4.6,-,N/A,,Partly Cloudy,310,2013-01-28 08:53:00
2:53 AM,30.0,19.9,66,29.65,10.0,WNW,6.9,-,N/A,,Clear,300,2013-01-28 09:53:00
3:53 AM,27.0,19.0,72,29.65,10.0,NW,6.9,-,N/A,,Clear,310,2013-01-28 10:53:00
4:53 AM,28.0,21.0,75,29.63,10.0,SSW,3.5,-,N/A,,Clear,210,2013-01-28 11:53:00
5:53 AM,26.1,19.0,75,29.65,10.0,WSW,3.5,-,N/A,,Clear,250,2013-01-28 12:53:00
6:53 AM,24.1,17.1,75,29.67,10.0,Calm,Calm,-,N/A,,Clear,0,2013-01-28 13:53:00
7:53 AM,25.0,17.1,72,29.68,10.0,Calm,Calm,-,N/A,,Clear,0,2013-01-28 14:53:00
8:53 AM,36.0,21.0,55,29.62,10.0,NNW,3.5,-,N/A,,Clear,330,2013-01-28 15:53:00
9:53 AM,44.1,24.1,45,29.60,10.0,Calm,Calm,-,N/A,,Clear,0,2013-01-28 16:53:00
10:53 AM,52.0,25.0,35,29.56,10.0,Calm,Calm,-,N/A,,Clear,0,2013-01-28 17:53:00
11:48 AM,62.6,24.8,24,29.55,10.0,SW,27.6,35.7,N/A,,Squalls,220,2013-01-28 18:48:00
11:53 AM,63.0,24.1,23,29.49,10.0,SW,29.9,35.7,N/A,,Clear,230,2013-01-28 18:53:00
12:03 PM,62.6,24.8,24,29.54,10.0,SW,23.0,34.5,N/A,,Clear,220,2013-01-28 19:03:00
12:53 PM,63.0,21.0,20,29.45,10.0,WSW,28.8,35.7,N/A,,Partly Cloudy,240,2013-01-28 19:53:00
1:53 PM,62.1,18.0,18,29.47,8.0,SW,20.7,32.2,N/A,,Scattered Clouds,230,2013-01-28 20:53:00
2:42 PM,60.8,15.8,17,29.53,1.8,SW,33.4,48.3,N/A,,Haze,230,2013-01-28 21:42:00
2:50 PM,60.8,14.0,16,29.53,2.0,WSW,31.1,44.9,N/A,,Haze,240,2013-01-28 21:50:00
2:53 PM,60.1,15.1,17,29.49,5.0,SW,31.1,44.9,N/A,,Haze,230,2013-01-28 21:53:00
3:00 PM,60.8,14.0,16,29.54,5.0,WSW,28.8,41.4,N/A,,Haze,240,2013-01-28 22:00:00
3:34 PM,57.2,15.8,20,29.54,9.0,WSW,29.9,38.0,N/A,,Scattered Clouds,240,2013-01-28 22:34:00
3:53 PM,57.9,16.0,19,29.52,10.0,SW,26.5,39.1,N/A,,Partly Cloudy,220,2013-01-28 22:53:00
4:53 PM,54.0,19.9,26,29.55,10.0,WSW,19.6,-,N/A,,Clear,250,2013-01-28 23:53:00
5:14 PM,46.4,24.8,43,29.60,10.0,WNW,20.7,31.1,N/A,,Clear,290,2013-01-29 00:14:00
5:53 PM,45.0,26.1,48,29.62,10.0,WNW,20.7,-,N/A,,Clear,300,2013-01-29 00:53:00
6:53 PM,39.9,28.0,63,29.68,10.0,WNW,8.1,-,N/A,,Clear,300,2013-01-29 01:53:00
7:53 PM,36.0,26.1,67,29.71,10.0,North,10.4,-,N/A,,Clear,350,2013-01-29 02:53:00
8:53 PM,34.0,25.0,70,29.69,10.0,East,6.9,-,N/A,,Clear,80,2013-01-29 03:53:00
9:53 PM,33.1,25.0,72,29.69,10.0,Variable,3.5,-,N/A,,Clear,0,2013-01-29 04:53:00
10:53 PM,30.9,25.0,79,29.68,10.0,Calm,Calm,-,N/A,,Clear,0,2013-01-29 05:53:00
11:53 PM,28.0,23.0,81,29.65,10.0,North,8.1,-,N/A,,Mostly Cloudy,10,2013-01-29 06:53:00